sat.trackr.live / text

‹ back to catalog

STARLINK-2547

NORAD 48286 · 2021-036L

PAYLOAD ACTIVE UNKNOWN

§ Identity

Operator
Country
US
Launch date
2021-04-29
Launch site
AFETR
Launch vehicle
Mass (kg)
RCS (m²)

Purposes: comms

External: N2YO · Heavens-Above · Gunter

§ Orbital elements

Epoch: 2026-09-08T10:08:35.220768Z

Period
94.01 min
Inclination
53.1595°
Eccentricity
0.0001165
Mean motion
15.31703657 rev/d
Perigee alt
469.9 km
Apogee alt
471.5 km
Semi-major
6,848.9 km
B*
1.2274e-5
RAAN
305.0636°
Arg perigee
86.0134°
Mean anomaly
274.1001°
Rev number
29,640

§ Raw data

STARLINK-25471 48286U 21036L   26251.42262987  .00000016  00000+0  12274-4 0  99922 48286  53.1595 305.0636 0001165  86.0134 274.1001 15.31703657296400

JSON: /api/v1/satellites/48286 · /tle

For live sub-satellite position, see the globe view (requires WebGL).

§ Visibility from observer

Set your observer location to see the next 7 days of passes ≥ 10°. The values pass through the URL so the page stays shareable.

No JS? Fill the form by hand. The geolocation button needs JavaScript.